| time (UTC) | temp C | wind direction | speed KPH | gust KPH | rain 1hr cm | rain 24hr cm | rain mn cm | humidity % | barometer mb |
| 20260510000004 | 21 | 123 | 0.0 | 4.8 | 0.00 | 0.15 | 0.15 | 26 | 1020.2 |
| 20260509234504 | 21 | 136 | 0.0 | 6.4 | 0.00 | 0.15 | 0.15 | 26 | 1020.1 |
| 20260509233004 | 21 | 112 | 0.0 | 4.8 | 0.00 | 0.15 | 0.15 | 26 | 1019.7 |
| 20260509231504 | 21 | 112 | 1.6 | 8.0 | 0.10 | 0.15 | 0.15 | 26 | 1019.6 |
| 20260509230004 | 21 | 166 | 1.6 | 4.8 | 0.13 | 0.15 | 0.15 | 26 | 1019.4 |
| 20260509224504 | 21 | 30 | 1.6 | 11.3 | 0.15 | 0.15 | 0.15 | 26 | 1019.2 |
| 20260509223003 | 21 | 164 | 1.6 | 8.0 | 0.15 | 0.15 | 0.15 | 26 | 1019.1 |
| 20260509221503 | 22 | 101 | 3.2 | 8.0 | 0.03 | 0.05 | 0.03 | 26 | 1019.0 |
| 20260509220004 | 23 | 128 | 1.6 | 6.4 | 0.03 | 0.05 | 0.03 | 26 | 1018.7 |
| 20260509214504 | 23 | 140 | 1.6 | 3.2 | 0.00 | 0.03 | 0.00 | 26 | 1018.6 |
| 20260509213005 | 23 | 131 | 1.6 | 6.4 | 0.00 | 0.28 | 0.00 | 26 | 1018.7 |
| 20260509211503 | 23 | 149 | 1.6 | 4.8 | 0.00 | 0.28 | 0.00 | 26 | 1018.5 |
| 20260509210003 | 23 | 135 | 0.0 | 6.4 | 0.00 | 0.28 | 0.00 | 26 | 1018.3 |
| 20260509204503 | 23 | 156 | 1.6 | 4.8 | 0.00 | 0.28 | 0.00 | 26 | 1018.2 |
| 20260509203003 | 23 | 146 | 0.0 | 4.8 | 0.00 | 0.28 | 0.00 | 26 | 1017.8 |
| 20260509201503 | 24 | 131 | 0.0 | 3.2 | 0.00 | 0.28 | 0.00 | 26 | 1017.5 |
| 20260509200003 | 24 | 155 | 1.6 | 4.8 | 0.00 | 0.28 | 0.00 | 26 | 1017.4 |
| 20260509194504 | 24 | 137 | 1.6 | 6.4 | 0.00 | 0.28 | 0.00 | 26 | 1017.2 |
| 20260509193003 | 24 | 88 | 1.6 | 6.4 | 0.00 | 0.28 | 0.00 | 26 | 1017.0 |
| 20260509191503 | 24 | 162 | 1.6 | 6.4 | 0.00 | 0.28 | 0.00 | 26 | 1016.9 |
| 20260509190003 | 25 | 158 | 1.6 | 6.4 | 0.00 | 0.28 | 0.00 | 26 | 1017.0 |
| 20260509184503 | 25 | 141 | 0.0 | 4.8 | 0.00 | 0.28 | 0.00 | 26 | 1016.7 |
| 20260509183003 | 25 | 124 | 1.6 | 6.4 | 0.00 | 0.28 | 0.00 | 26 | 1017.0 |
| 20260509181503 | 26 | 135 | 1.6 | 4.8 | 0.00 | 0.28 | 0.00 | 26 | 1017.0 |
| 20260509180003 | 26 | 143 | 1.6 | 3.2 | 0.00 | 0.28 | 0.00 | 26 | 1016.9 |
| 20260509174503 | 25 | 139 | 1.6 | 4.8 | 0.00 | 0.28 | 0.00 | 26 | 1016.8 |
| 20260509173003 | 25 | 139 | 1.6 | 6.4 | 0.00 | 0.28 | 0.00 | 26 | 1017.1 |
| 20260509171504 | 26 | 125 | 3.2 | 6.4 | 0.00 | 0.28 | 0.00 | 26 | 1017.0 |
| 20260509170004 | 25 | 108 | 3.2 | 6.4 | 0.00 | 0.28 | 0.00 | 26 | 1017.3 |
| 20260509164509 | 26 | 141 | 1.6 | 8.0 | 0.00 | 0.28 | 0.00 | 26 | 1017.3 |
| 20260509163004 | 26 | 158 | 1.6 | 6.4 | 0.00 | 0.28 | 0.00 | 26 | 1017.5 |
| 20260509161504 | 27 | 188 | 3.2 | 6.4 | 0.00 | 0.28 | 0.00 | 26 | 1017.6 |
| 20260509160004 | 28 | 146 | 3.2 | 8.0 | 0.00 | 0.28 | 0.00 | 26 | 1017.6 |
| 20260509154504 | 27 | 120 | 3.2 | 8.0 | 0.00 | 0.28 | 0.00 | 26 | 1017.7 |
| 20260509153004 | 27 | 166 | 1.6 | 6.4 | 0.00 | 0.28 | 0.00 | 26 | 1018.0 |
| 20260509151504 | 26 | 155 | 3.2 | 8.0 | 0.00 | 0.28 | 0.00 | 26 | 1018.0 |
| 20260509150004 | 25 | 133 | 1.6 | 4.8 | 0.00 | 0.28 | 0.00 | 26 | 1018.1 |
| 20260509144504 | 25 | 125 | 0.0 | 4.8 | 0.00 | 0.28 | 0.00 | 26 | 1018.0 |
| 20260509143004 | 26 | 128 | 3.2 | 6.4 | 0.00 | 0.28 | 0.00 | 26 | 1017.9 |
| 20260509141504 | 26 | 135 | 0.0 | 3.2 | 0.00 | 0.28 | 0.00 | 26 | 1017.9 |
| 20260509140005 | 26 | 184 | 0.0 | 3.2 | 0.00 | 0.28 | 0.00 | 26 | 1017.9 |
| 20260509134504 | 26 | 146 | 3.2 | 6.4 | 0.00 | 0.28 | 0.00 | 26 | 1018.2 |
| 20260509133004 | 26 | 246 | 0.0 | 3.2 | 0.00 | 0.28 | 0.00 | 26 | 1018.3 |
| 20260509131504 | 26 | 315 | 0.0 | 3.2 | 0.00 | 0.28 | 0.00 | 26 | 1018.2 |
| 20260509130004 | 25 | 359 | 0.0 | 4.8 | 0.00 | 0.28 | 0.00 | 26 | 1018.0 |
| 20260509124504 | 25 | 18 | 0.0 | 3.2 | 0.00 | 0.28 | 0.00 | 26 | 1017.9 |
| 20260509123004 | 25 | 75 | 0.0 | 4.8 | 0.00 | 0.28 | 0.00 | 26 | 1017.9 |
| 20260509121504 | 25 | 135 | 0.0 | 3.2 | 0.00 | 0.28 | 0.00 | 26 | 1017.9 |
| 20260509120004 | 26 | 147 | 0.0 | 3.2 | 0.00 | 0.28 | 0.00 | 26 | 1017.7 |
| 20260509114504 | 25 | 153 | 0.0 | 4.8 | 0.00 | 0.28 | 0.00 | 26 | 1017.6 |
| 20260509113004 | 25 | 130 | 0.0 | 3.2 | 0.00 | 0.28 | 0.00 | 26 | 1017.4 |
| 20260509111509 | 24 | 135 | 0.0 | 3.2 | 0.00 | 0.28 | 0.00 | 26 | 1017.1 |
| 20260509110004 | 23 | 219 | 1.6 | 4.8 | 0.00 | 0.28 | 0.00 | 26 | 1016.8 |
| 20260509104504 | 23 | 146 | 1.6 | 4.8 | 0.00 | 0.28 | 0.00 | 26 | 1016.6 |
| 20260509103004 | 23 | 149 | 1.6 | 6.4 | 0.00 | 0.28 | 0.00 | 26 | 1016.5 |
| 20260509101503 | 23 | 121 | 0.0 | 6.4 | 0.00 | 0.28 | 0.00 | 26 | 1015.7 |
| 20260509100005 | 23 | 191 | 1.6 | 4.8 | 0.00 | 0.28 | 0.00 | 26 | 1015.3 |
| 20260509094503 | 23 | 135 | 0.0 | 3.2 | 0.00 | 0.28 | 0.00 | 26 | 1014.9 |
| 20260509093004 | 23 | 225 | 0.0 | 3.2 | 0.00 | 0.28 | 0.00 | 26 | 1014.8 |
| 20260509091503 | 23 | 142 | 0.0 | 4.8 | 0.00 | 0.28 | 0.00 | 26 | 1014.5 |
| 20260509090003 | 23 | 112 | 0.0 | 3.2 | 0.00 | 0.28 | 0.00 | 26 | 1014.5 |
| 20260509084503 | 23 | 90 | 0.0 | 3.2 | 0.00 | 0.28 | 0.00 | 26 | 1014.3 |
| 20260509083003 | 23 | 134 | 0.0 | 6.4 | 0.00 | 0.28 | 0.00 | 26 | 1014.2 |
| 20260509081503 | 23 | 134 | 1.6 | 6.4 | 0.00 | 0.28 | 0.00 | 26 | 1014.4 |
| 20260509080003 | 23 | 131 | 0.0 | 3.2 | 0.00 | 0.28 | 0.00 | 26 | 1014.4 |
| 20260509074503 | 23 | 142 | 0.0 | 4.8 | 0.00 | 0.28 | 0.00 | 26 | 1014.3 |
| 20260509073003 | 23 | 133 | 3.2 | 6.4 | 0.00 | 0.28 | 0.00 | 26 | 1013.9 |
| 20260509071503 | 23 | 100 | 3.2 | 11.3 | 0.00 | 0.28 | 0.00 | 26 | 1014.0 |
| 20260509070003 | 23 | 125 | 3.2 | 6.4 | 0.00 | 0.28 | 0.00 | 26 | 1014.0 |
| 20260509064503 | 24 | 185 | 0.0 | 12.9 | 0.00 | 0.28 | 0.00 | 26 | 1013.9 |
| 20260509063003 | 23 | 134 | 3.2 | 6.4 | 0.00 | 0.28 | 0.00 | 26 | 1013.5 |
| 20260509061504 | 23 | 315 | 0.0 | 1.6 | 0.00 | 0.28 | 0.00 | 26 | 1013.3 |
| 20260509060004 | 24 | 319 | 0.0 | 3.2 | 0.00 | 0.28 | 0.00 | 26 | 1013.1 |
| 20260509054504 | 24 | 135 | 0.0 | 3.2 | 0.00 | 0.28 | 0.00 | 26 | 1013.4 |
| 20260509053004 | 24 | 128 | 1.6 | 4.8 | 0.00 | 0.28 | 0.00 | 26 | 1013.3 |
| 20260509051504 | 24 | 111 | 0.0 | 4.8 | 0.00 | 0.28 | 0.00 | 26 | 1013.4 |
| 20260509050004 | 24 | 130 | 0.0 | 8.0 | 0.00 | 0.28 | 0.00 | 26 | 1013.5 |
| 20260509044504 | 24 | 144 | 0.0 | 4.8 | 0.00 | 0.28 | 0.00 | 26 | 1013.5 |
| 20260509043004 | 24 | 123 | 1.6 | 6.4 | 0.00 | 0.28 | 0.00 | 26 | 1013.4 |
| 20260509041504 | 24 | 112 | 1.6 | 9.7 | 0.00 | 0.28 | 0.00 | 26 | 1013.6 |
| 20260509040009 | 24 | 156 | 1.6 | 6.4 | 0.00 | 0.28 | 0.00 | 26 | 1013.6 |
| 20260509034504 | 25 | 149 | 3.2 | 6.4 | 0.00 | 0.28 | 0.00 | 26 | 1013.5 |
| 20260509033004 | 25 | 135 | 1.6 | 6.4 | 0.00 | 0.28 | 0.00 | 26 | 1013.4 |
| 20260509031504 | 25 | 135 | 0.0 | 1.6 | 0.00 | 0.28 | 0.00 | 26 | 1013.4 |
| 20260509030004 | 25 | 135 | 0.0 | 1.6 | 0.00 | 0.28 | 0.00 | 26 | 1013.4 |
| 20260509024503 | 25 | 135 | 0.0 | 3.2 | 0.00 | 0.28 | 0.28 | 26 | 1013.4 |
| 20260509023004 | 25 | 135 | 0.0 | 1.6 | 0.00 | 0.28 | 0.28 | 26 | 1013.2 |
| 20260509021503 | 25 | 135 | 0.0 | 3.2 | 0.00 | 0.28 | 0.28 | 26 | 1013.3 |
| 20260509020004 | 25 | 348 | 0.0 | 3.2 | 0.00 | 0.28 | 0.28 | 26 | 1013.1 |
| 20260509014503 | 25 | 360 | 0.0 | 1.6 | 0.00 | 0.28 | 0.28 | 26 | 1013.3 |
| 20260509013003 | 25 | 360 | 0.0 | 1.6 | 0.00 | 0.28 | 0.28 | 26 | 1013.3 |
| 20260509011503 | 25 | 360 | 0.0 | 3.2 | 0.00 | 0.28 | 0.28 | 26 | 1013.5 |
| 20260509010004 | 25 | 0 | 0.0 | 0.0 | 0.00 | 0.28 | 0.28 | 26 | 1013.6 |
| 20260509004503 | 25 | 0 | 0.0 | 0.0 | 0.00 | 0.28 | 0.28 | 26 | 1013.4 |
| 20260509003003 | 25 | 360 | 0.0 | 1.6 | 0.00 | 0.28 | 0.28 | 26 | 1013.4 |
| 20260509001503 | 25 | 360 | 0.0 | 3.2 | 0.00 | 0.28 | 0.28 | 26 | 1013.3 |